Showing default

TECHEDSAT-11, 60208

Orbit data source: Space-Track

TECHEDSAT-11, 60208 is an American payload satellite in SSO that was launched on Thu, 04 Jul 2024 UTC via an FIREFLY ALPHA launch vehicle from the Air Force Western Test Range (AFWTR). Payload-class satellites include a variety of spacecraft equipped with specific instruments for various scientific and technological missions. These include communications satellites like Starlink; space stations such as the ISS; scientific satellites like the Hubble; Earth observation satellites from companies like Planet Labs, Umbra, and HawkEye 360; GPS; miniature CubeSats for education and research; and military/defense satellites.

Loading next visibility...
Identifier
60208, 2024-125F
Orbit
SSO
Country
Flag of USUS
Related business
Manufacturer
ARC
Mission
Operational Civil Technology
Bus & Motor
CUBESAT 6UXL, Unknown motor
Mass
10 kg wet, 10 kg dry
Launch date (UTC)
2024-07-04 (1 year ago)
Launch vehicle
FIREFLY ALPHA
Launch site
Air Force Western Test Range (AFWTR)
Object type
Payload
Rocket body
Debris
Shape & HBR
Box + 1 Sail, 1.0 m
Radar Cross Section
0.045 m², Small (<0.1 m²)

Expand to show TLE details & history
Last TLE update: 20 hours ago

TLE from 20 hours ago
0 TECHEDSAT-11
1 60208U 24125F   25340.56298469  .00029978  00000-0  77559-3 0  9994
2 60208  97.2555 189.0911 0017158 202.9111 157.1371 15.38881248 79535
Epoch: 2025-12-06T13:30Z
TLE epoch observation values (Epoch: 2025-12-06T13:30:41.877Z)
Latitude
-0.00003°
Longitude
-89.17231°
Altitude
463.336 km
Speed
7.629 km/s
True Right ascension
12h 36m 21s
True Declination
0° 00' 00"
Sunlit
Object was in daylight at epoch
Visualization orbit readout
Latitude
Unknown
Longitude
Unknown
Altitude
Unknown
Speed
Unknown
Apparent Right ascension
Unknown
Apparent Declination
Unknown
Sunlit
N/A
Visualization observer readout
Local Sidereal Time
07:40:08
Azimuth
Unknown
Elevation
Unknown
Doppler factor
Unknown
Orbital elements
Apogee altitude
458.06 km
Perigee altitude
434.641 km
Semi-major axis
6,824.488 km
Eccentricity
0.00172
Inclination
97.2555°
RAAN
189.0911°
Arg. of periapsis
202.9111°
True anomaly
157.21334°
Mean anomaly
157.1371°
Eccentric anomaly
157.17524°
Mean motion
3.8498 °/min
Orbital period
93.51 mins
BSTAR
0.00077559
Loading maneuver chart data...
Computing Atmospheric mass density...
Loading historical data...
Loading historical data...
Loading historical data...
Loading historical data...
Loading historical data...
Loading historical data...
Loading historical data...

Documentation

Showing up to 5 results
|